Time,TemperatureF,DewpointF,PressureIn,WindDirection,WindDirectionDegrees,WindSpeedMPH,WindSpeedGustMPH,Humidity,HourlyPrecipIn,Conditions,Clouds,dailyrainin,SolarRadiationWatts/m^2,SoftwareType,DateUTC
2013-05-09 00:07:00,53.1,28.6,29.69,North,-999,-999.0,-999.0,32,0.00,,,-99.99,0.0,Linux-Irox,2013-05-09 07:07:00,
2013-05-09 00:17:00,52.9,28.4,29.69,North,-999,-999.0,-999.0,32,0.00,,,-99.99,0.0,Linux-Irox,2013-05-09 07:17:00,
2013-05-09 00:27:00,52.5,28.0,29.69,North,-999,-999.0,-999.0,32,0.00,,,-99.99,0.0,Linux-Irox,2013-05-09 07:27:00,
2013-05-09 00:37:00,52.5,28.4,29.69,North,-999,-999.0,-999.0,33,0.00,,,-99.99,0.0,Linux-Irox,2013-05-09 07:37:00,
2013-05-09 00:47:00,52.2,28.0,29.69,North,-999,-999.0,-999.0,33,0.00,,,-99.99,0.0,Linux-Irox,2013-05-09 07:47:00,
2013-05-09 00:57:00,52.0,27.9,29.69,North,-999,-999.0,-999.0,33,0.00,,,-99.99,0.0,Linux-Irox,2013-05-09 07:57:00,
2013-05-09 01:07:00,51.8,28.0,29.69,North,-999,-999.0,-999.0,34,0.00,,,-99.99,0.0,Linux-Irox,2013-05-09 08:07:00,
2013-05-09 01:17:00,51.8,28.0,29.69,North,-999,-999.0,-999.0,34,0.00,,,-99.99,0.0,Linux-Irox,2013-05-09 08:17:00,
2013-05-09 01:27:00,51.8,28.0,29.69,North,-999,-999.0,-999.0,34,0.00,,,-99.99,0.0,Linux-Irox,2013-05-09 08:27:00,
2013-05-09 01:37:00,51.8,28.0,29.69,North,-999,-999.0,-999.0,34,0.00,,,-99.99,0.0,Linux-Irox,2013-05-09 08:37:00,
2013-05-09 01:47:00,52.2,28.8,29.69,North,-999,-999.0,-999.0,35,0.00,,,-99.99,0.0,Linux-Irox,2013-05-09 08:47:00,
2013-05-09 01:57:00,51.6,28.6,29.69,North,-999,-999.0,-999.0,36,0.00,,,-99.99,0.0,Linux-Irox,2013-05-09 08:57:00,
2013-05-09 02:07:00,51.4,28.4,29.68,North,-999,-999.0,-999.0,36,0.00,,,-99.99,0.0,Linux-Irox,2013-05-09 09:07:00,
2013-05-09 02:17:00,51.6,28.6,29.68,North,-999,-999.0,-999.0,36,0.00,,,-99.99,0.0,Linux-Irox,2013-05-09 09:17:00,
2013-05-09 02:27:00,51.1,28.0,29.68,North,-999,-999.0,-999.0,36,0.00,,,-99.99,0.0,Linux-Irox,2013-05-09 09:27:00,
2013-05-09 02:37:00,50.9,27.9,29.68,North,-999,-999.0,-999.0,36,0.00,,,-99.99,0.0,Linux-Irox,2013-05-09 09:37:00,
2013-05-09 02:47:00,51.3,28.6,29.67,North,-999,-999.0,-999.0,37,0.00,,,-99.99,0.0,Linux-Irox,2013-05-09 09:47:00,
2013-05-09 02:57:00,50.7,28.0,29.67,North,-999,-999.0,-999.0,37,0.00,,,-99.99,0.0,Linux-Irox,2013-05-09 09:57:00,
2013-05-09 03:07:00,51.1,28.8,29.68,North,-999,-999.0,-999.0,38,0.00,,,-99.99,0.0,Linux-Irox,2013-05-09 10:07:00,
2013-05-09 03:17:00,50.9,28.6,29.68,North,-999,-999.0,-999.0,38,0.00,,,-99.99,0.0,Linux-Irox,2013-05-09 10:17:00,
2013-05-09 03:27:00,51.3,30.0,29.66,North,-999,-999.0,-999.0,41,0.00,,,-99.99,0.0,Linux-Irox,2013-05-09 10:27:00,
2013-05-09 03:37:00,51.4,29.8,29.66,North,-999,-999.0,-999.0,40,0.00,,,-99.99,0.0,Linux-Irox,2013-05-09 10:37:00,
2013-05-09 03:47:00,51.6,30.4,29.68,North,-999,-999.0,-999.0,41,0.00,,,-99.99,0.0,Linux-Irox,2013-05-09 10:47:00,
2013-05-09 03:57:00,51.3,30.4,29.68,North,-999,-999.0,-999.0,42,0.00,,,-99.99,0.0,Linux-Irox,2013-05-09 10:57:00,
2013-05-09 04:07:00,51.3,30.4,29.68,North,-999,-999.0,-999.0,42,0.00,,,-99.99,0.0,Linux-Irox,2013-05-09 11:07:00,
2013-05-09 04:17:00,51.3,30.4,29.68,North,-999,-999.0,-999.0,42,0.00,,,-99.99,0.0,Linux-Irox,2013-05-09 11:17:00,
2013-05-09 04:27:00,51.3,30.7,29.68,North,-999,-999.0,-999.0,43,0.00,,,-99.99,0.0,Linux-Irox,2013-05-09 11:27:00,
2013-05-09 04:37:00,50.9,30.4,29.68,North,-999,-999.0,-999.0,43,0.00,,,-99.99,0.0,Linux-Irox,2013-05-09 11:37:00,
2013-05-09 04:47:00,50.5,29.7,29.68,North,-999,-999.0,-999.0,42,0.00,,,-99.99,0.0,Linux-Irox,2013-05-09 11:47:00,
2013-05-09 04:57:00,50.7,29.8,29.68,North,-999,-999.0,-999.0,42,0.00,,,-99.99,0.0,Linux-Irox,2013-05-09 11:57:00,
2013-05-09 05:07:00,50.5,30.0,29.68,North,-999,-999.0,-999.0,43,0.00,,,-99.99,0.0,Linux-Irox,2013-05-09 12:07:00,
2013-05-09 05:17:00,50.7,30.2,29.68,North,-999,-999.0,-999.0,43,0.00,,,-99.99,0.0,Linux-Irox,2013-05-09 12:17:00,
2013-05-09 05:27:00,50.7,30.2,29.69,North,-999,-999.0,-999.0,43,0.00,,,-99.99,0.0,Linux-Irox,2013-05-09 12:27:00,
2013-05-09 05:37:00,50.5,30.0,29.69,North,-999,-999.0,-999.0,43,0.00,,,-99.99,0.0,Linux-Irox,2013-05-09 12:37:00,
2013-05-09 05:47:00,50.4,29.8,29.69,North,-999,-999.0,-999.0,43,0.00,,,-99.99,0.0,Linux-Irox,2013-05-09 12:47:00,
2013-05-09 05:57:00,50.4,29.8,29.69,North,-999,-999.0,-999.0,43,0.00,,,-99.99,0.0,Linux-Irox,2013-05-09 12:57:00,
2013-05-09 06:07:00,50.5,30.4,29.69,North,-999,-999.0,-999.0,44,0.00,,,-99.99,0.0,Linux-Irox,2013-05-09 13:07:00,
2013-05-09 06:17:00,50.7,30.6,29.69,North,-999,-999.0,-999.0,44,0.00,,,-99.99,0.0,Linux-Irox,2013-05-09 13:17:00,
2013-05-09 06:27:00,50.9,30.7,29.70,North,-999,-999.0,-999.0,44,0.00,,,-99.99,0.0,Linux-Irox,2013-05-09 13:27:00,
2013-05-09 06:31:00,51.1,30.9,29.70,North,-999,-999.0,-999.0,44,0.00,,,-99.99,0.0,Linux-Irox,2013-05-09 13:31:00,
2013-05-09 06:37:00,51.3,31.1,29.70,North,-999,-999.0,-999.0,44,0.00,,,-99.99,0.0,Linux-Irox,2013-05-09 13:37:00,
2013-05-09 06:46:00,51.4,31.3,29.70,North,-999,-999.0,-999.0,44,0.00,,,-99.99,0.0,Linux-Irox,2013-05-09 13:46:00,
2013-05-09 06:47:00,51.6,31.5,29.70,North,-999,-999.0,-999.0,44,0.00,,,-99.99,0.0,Linux-Irox,2013-05-09 13:47:00,
2013-05-09 06:57:00,53.4,33.3,29.70,North,-999,-999.0,-999.0,44,0.00,,,-99.99,0.0,Linux-Irox,2013-05-09 13:57:00,
2013-05-09 07:01:00,55.6,35.1,29.72,North,-999,-999.0,-999.0,43,0.00,,,-99.99,0.0,Linux-Irox,2013-05-09 14:01:00,
2013-05-09 07:07:00,57.9,37.0,29.72,North,-999,-999.0,-999.0,42,0.00,,,-99.99,0.0,Linux-Irox,2013-05-09 14:07:00,
2013-05-09 07:16:00,59.9,37.2,29.72,North,-999,-999.0,-999.0,37,0.00,,,-99.99,0.0,Linux-Irox,2013-05-09 14:16:00,
2013-05-09 07:17:00,60.3,37.2,29.72,North,-999,-999.0,-999.0,36,0.00,,,-99.99,0.0,Linux-Irox,2013-05-09 14:17:00,
2013-05-09 07:27:00,61.7,36.9,29.72,North,-999,-999.0,-999.0,31,0.00,,,-99.99,0.0,Linux-Irox,2013-05-09 14:27:00,
2013-05-09 07:31:00,63.1,37.9,29.72,North,-999,-999.0,-999.0,30,0.00,,,-99.99,0.0,Linux-Irox,2013-05-09 14:31:00,
2013-05-09 07:37:00,64.0,36.0,29.72,North,-999,-999.0,-999.0,22,0.00,,,-99.99,0.0,Linux-Irox,2013-05-09 14:37:00,
2013-05-09 07:46:00,64.8,34.9,29.73,North,-999,-999.0,-999.0,17,0.00,,,-99.99,0.0,Linux-Irox,2013-05-09 14:46:00,
2013-05-09 07:47:00,65.3,34.7,29.73,North,-999,-999.0,-999.0,15,0.00,,,-99.99,0.0,Linux-Irox,2013-05-09 14:47:00,
2013-05-09 07:57:00,64.2,32.5,29.73,North,-999,-999.0,-999.0,12,0.00,,,-99.99,0.0,Linux-Irox,2013-05-09 14:57:00,
2013-05-09 08:01:00,64.8,32.4,29.74,North,-999,-999.0,-999.0,10,0.00,,,-99.99,0.0,Linux-Irox,2013-05-09 15:01:00,
2013-05-09 08:07:00,65.5,33.1,29.74,North,-999,-999.0,-999.0,10,0.00,,,-99.99,0.0,Linux-Irox,2013-05-09 15:07:00,
2013-05-09 08:16:00,66.0,32.2,29.74,North,-999,-999.0,-999.0,6,0.00,,,-99.99,0.0,Linux-Irox,2013-05-09 15:16:00,
2013-05-09 08:17:00,66.7,32.9,29.74,North,-999,-999.0,-999.0,6,0.00,,,-99.99,0.0,Linux-Irox,2013-05-09 15:17:00,
2013-05-09 08:27:00,68.7,34.5,29.74,North,-999,-999.0,-999.0,5,0.00,,,-99.99,0.0,Linux-Irox,2013-05-09 15:27:00,
2013-05-09 08:31:00,69.8,35.6,29.74,North,-999,-999.0,-999.0,5,0.00,,,-99.99,0.0,Linux-Irox,2013-05-09 15:31:00,
2013-05-09 08:37:00,70.5,36.3,29.74,North,-999,-999.0,-999.0,5,0.00,,,-99.99,0.0,Linux-Irox,2013-05-09 15:37:00,
2013-05-09 08:46:00,67.8,34.0,29.72,North,-999,-999.0,-999.0,6,0.00,,,-99.99,0.0,Linux-Irox,2013-05-09 15:46:00,
2013-05-09 08:47:00,67.8,34.0,29.72,North,-999,-999.0,-999.0,6,0.00,,,-99.99,0.0,Linux-Irox,2013-05-09 15:47:00,
2013-05-09 08:57:00,68.5,34.3,29.72,North,-999,-999.0,-999.0,5,0.00,,,-99.99,0.0,Linux-Irox,2013-05-09 15:57:00,
2013-05-09 09:01:00,69.3,35.1,29.71,North,-999,-999.0,-999.0,5,0.00,,,-99.99,0.0,Linux-Irox,2013-05-09 16:01:00,
2013-05-09 09:07:00,68.7,34.5,29.71,North,-999,-999.0,-999.0,5,0.00,,,-99.99,0.0,Linux-Irox,2013-05-09 16:07:00,
2013-05-09 09:16:00,70.7,36.5,29.71,North,-999,-999.0,-999.0,5,0.00,,,-99.99,0.0,Linux-Irox,2013-05-09 16:16:00,
2013-05-09 09:17:00,70.0,35.8,29.71,North,-999,-999.0,-999.0,5,0.00,,,-99.99,0.0,Linux-Irox,2013-05-09 16:17:00,
2013-05-09 09:27:00,70.2,36.0,29.69,North,-999,-999.0,-999.0,5,0.00,,,-99.99,0.0,Linux-Irox,2013-05-09 16:27:00,
2013-05-09 09:31:00,69.3,35.1,29.69,North,-999,-999.0,-999.0,5,0.00,,,-99.99,0.0,Linux-Irox,2013-05-09 16:31:00,
2013-05-09 09:37:00,69.4,35.2,29.69,North,-999,-999.0,-999.0,5,0.00,,,-99.99,0.0,Linux-Irox,2013-05-09 16:37:00,
2013-05-09 09:46:00,70.5,36.3,29.69,North,-999,-999.0,-999.0,5,0.00,,,-99.99,0.0,Linux-Irox,2013-05-09 16:46:00,
2013-05-09 09:47:00,71.1,36.9,29.69,North,-999,-999.0,-999.0,5,0.00,,,-99.99,0.0,Linux-Irox,2013-05-09 16:47:00,
2013-05-09 09:57:00,69.8,35.6,29.69,North,-999,-999.0,-999.0,5,0.00,,,-99.99,0.0,Linux-Irox,2013-05-09 16:57:00,
2013-05-09 10:01:00,69.6,35.4,29.69,North,-999,-999.0,-999.0,5,0.00,,,-99.99,0.0,Linux-Irox,2013-05-09 17:01:00,
2013-05-09 10:07:00,69.3,35.1,29.69,North,-999,-999.0,-999.0,5,0.00,,,-99.99,0.0,Linux-Irox,2013-05-09 17:07:00,
2013-05-09 10:16:00,70.3,36.1,29.69,North,-999,-999.0,-999.0,5,0.00,,,-99.99,0.0,Linux-Irox,2013-05-09 17:16:00,
2013-05-09 10:17:00,70.5,36.3,29.69,North,-999,-999.0,-999.0,5,0.00,,,-99.99,0.0,Linux-Irox,2013-05-09 17:17:00,
2013-05-09 10:27:00,71.6,37.4,29.69,North,-999,-999.0,-999.0,5,0.00,,,-99.99,0.0,Linux-Irox,2013-05-09 17:27:00,
2013-05-09 10:31:00,71.2,37.0,29.69,North,-999,-999.0,-999.0,5,0.00,,,-99.99,0.0,Linux-Irox,2013-05-09 17:31:00,
2013-05-09 10:37:00,71.4,37.2,29.69,North,-999,-999.0,-999.0,5,0.00,,,-99.99,0.0,Linux-Irox,2013-05-09 17:37:00,
2013-05-09 10:46:00,70.5,36.3,29.68,North,-999,-999.0,-999.0,5,0.00,,,-99.99,0.0,Linux-Irox,2013-05-09 17:46:00,
2013-05-09 10:47:00,70.0,35.8,29.68,North,-999,-999.0,-999.0,5,0.00,,,-99.99,0.0,Linux-Irox,2013-05-09 17:47:00,
2013-05-09 10:57:00,70.3,36.1,29.68,North,-999,-999.0,-999.0,5,0.00,,,-99.99,0.0,Linux-Irox,2013-05-09 17:57:00,
2013-05-09 11:01:00,71.1,36.9,29.68,North,-999,-999.0,-999.0,5,0.00,,,-99.99,0.0,Linux-Irox,2013-05-09 18:01:00,
2013-05-09 11:07:00,72.0,37.8,29.68,North,-999,-999.0,-999.0,5,0.00,,,-99.99,0.0,Linux-Irox,2013-05-09 18:07:00,
2013-05-09 11:16:00,70.0,35.8,29.68,North,-999,-999.0,-999.0,5,0.00,,,-99.99,0.0,Linux-Irox,2013-05-09 18:16:00,
2013-05-09 11:17:00,71.2,37.0,29.68,North,-999,-999.0,-999.0,5,0.00,,,-99.99,0.0,Linux-Irox,2013-05-09 18:17:00,
2013-05-09 11:27:00,70.0,35.8,29.68,North,-999,-999.0,-999.0,5,0.00,,,-99.99,0.0,Linux-Irox,2013-05-09 18:27:00,
2013-05-09 11:31:00,71.1,36.9,29.68,North,-999,-999.0,-999.0,5,0.00,,,-99.99,0.0,Linux-Irox,2013-05-09 18:31:00,
2013-05-09 11:37:00,72.1,37.9,29.68,North,-999,-999.0,-999.0,5,0.00,,,-99.99,0.0,Linux-Irox,2013-05-09 18:37:00,
2013-05-09 11:46:00,70.9,36.7,29.68,North,-999,-999.0,-999.0,5,0.00,,,-99.99,0.0,Linux-Irox,2013-05-09 18:46:00,
2013-05-09 11:47:00,70.7,36.5,29.68,North,-999,-999.0,-999.0,5,0.00,,,-99.99,0.0,Linux-Irox,2013-05-09 18:47:00,
2013-05-09 11:57:00,70.7,36.5,29.68,North,-999,-999.0,-999.0,5,0.00,,,-99.99,0.0,Linux-Irox,2013-05-09 18:57:00,
2013-05-09 12:01:00,70.9,36.7,29.69,North,-999,-999.0,-999.0,5,0.00,,,-99.99,0.0,Linux-Irox,2013-05-09 19:01:00,
2013-05-09 12:07:00,70.9,36.7,29.69,North,-999,-999.0,-999.0,5,0.00,,,-99.99,0.0,Linux-Irox,2013-05-09 19:07:00,
2013-05-09 12:16:00,72.7,38.5,29.69,North,-999,-999.0,-999.0,5,0.00,,,-99.99,0.0,Linux-Irox,2013-05-09 19:16:00,
2013-05-09 12:17:00,72.3,38.1,29.69,North,-999,-999.0,-999.0,5,0.00,,,-99.99,0.0,Linux-Irox,2013-05-09 19:17:00,
2013-05-09 12:27:00,72.7,38.5,29.68,North,-999,-999.0,-999.0,5,0.00,,,-99.99,0.0,Linux-Irox,2013-05-09 19:27:00,
2013-05-09 12:31:00,72.5,38.3,29.68,North,-999,-999.0,-999.0,5,0.00,,,-99.99,0.0,Linux-Irox,2013-05-09 19:31:00,
2013-05-09 12:37:00,72.5,38.3,29.68,North,-999,-999.0,-999.0,5,0.00,,,-99.99,0.0,Linux-Irox,2013-05-09 19:37:00,
2013-05-09 12:46:00,72.1,37.9,29.68,North,-999,-999.0,-999.0,5,0.00,,,-99.99,0.0,Linux-Irox,2013-05-09 19:46:00,
2013-05-09 12:47:00,72.1,37.9,29.68,North,-999,-999.0,-999.0,5,0.00,,,-99.99,0.0,Linux-Irox,2013-05-09 19:47:00,
2013-05-09 12:57:00,73.2,39.0,29.68,North,-999,-999.0,-999.0,5,0.00,,,-99.99,0.0,Linux-Irox,2013-05-09 19:57:00,
2013-05-09 13:01:00,73.2,39.0,29.68,North,-999,-999.0,-999.0,5,0.00,,,-99.99,0.0,Linux-Irox,2013-05-09 20:01:00,
2013-05-09 13:07:00,73.9,39.7,29.68,North,-999,-999.0,-999.0,5,0.00,,,-99.99,0.0,Linux-Irox,2013-05-09 20:07:00,
2013-05-09 13:16:00,73.6,39.4,29.68,North,-999,-999.0,-999.0,5,0.00,,,-99.99,0.0,Linux-Irox,2013-05-09 20:16:00,
2013-05-09 13:17:00,73.6,39.4,29.68,North,-999,-999.0,-999.0,5,0.00,,,-99.99,0.0,Linux-Irox,2013-05-09 20:17:00,
2013-05-09 13:27:00,73.6,39.4,29.68,North,-999,-999.0,-999.0,5,0.00,,,-99.99,0.0,Linux-Irox,2013-05-09 20:27:00,
2013-05-09 13:31:00,73.4,39.2,29.68,North,-999,-999.0,-999.0,5,0.00,,,-99.99,0.0,Linux-Irox,2013-05-09 20:31:00,
2013-05-09 13:37:00,72.9,38.7,29.68,North,-999,-999.0,-999.0,5,0.00,,,-99.99,0.0,Linux-Irox,2013-05-09 20:37:00,
2013-05-09 13:46:00,73.6,39.4,29.68,North,-999,-999.0,-999.0,5,0.00,,,-99.99,0.0,Linux-Irox,2013-05-09 20:46:00,
2013-05-09 13:47:00,73.6,39.4,29.68,North,-999,-999.0,-999.0,5,0.00,,,-99.99,0.0,Linux-Irox,2013-05-09 20:47:00,
2013-05-09 13:57:00,73.8,39.6,29.68,North,-999,-999.0,-999.0,5,0.00,,,-99.99,0.0,Linux-Irox,2013-05-09 20:57:00,
2013-05-09 14:01:00,74.5,40.3,29.67,North,-999,-999.0,-999.0,5,0.00,,,-99.99,0.0,Linux-Irox,2013-05-09 21:01:00,
2013-05-09 14:07:00,75.0,40.8,29.67,North,-999,-999.0,-999.0,5,0.00,,,-99.99,0.0,Linux-Irox,2013-05-09 21:07:00,
2013-05-09 14:16:00,75.9,41.7,29.67,North,-999,-999.0,-999.0,5,0.00,,,-99.99,0.0,Linux-Irox,2013-05-09 21:16:00,
2013-05-09 14:17:00,75.9,41.7,29.67,North,-999,-999.0,-999.0,5,0.00,,,-99.99,0.0,Linux-Irox,2013-05-09 21:17:00,
2013-05-09 14:27:00,77.2,43.0,29.68,North,-999,-999.0,-999.0,5,0.00,,,-99.99,0.0,Linux-Irox,2013-05-09 21:27:00,
2013-05-09 14:31:00,76.5,42.3,29.68,North,-999,-999.0,-999.0,5,0.00,,,-99.99,0.0,Linux-Irox,2013-05-09 21:31:00,
2013-05-09 14:37:00,75.2,41.0,29.68,North,-999,-999.0,-999.0,5,0.00,,,-99.99,0.0,Linux-Irox,2013-05-09 21:37:00,
2013-05-09 14:46:00,73.4,39.2,29.68,North,-999,-999.0,-999.0,5,0.00,,,-99.99,0.0,Linux-Irox,2013-05-09 21:46:00,
2013-05-09 14:47:00,73.0,38.8,29.68,North,-999,-999.0,-999.0,5,0.00,,,-99.99,0.0,Linux-Irox,2013-05-09 21:47:00,
2013-05-09 14:57:00,73.0,38.8,29.68,North,-999,-999.0,-999.0,5,0.00,,,-99.99,0.0,Linux-Irox,2013-05-09 21:57:00,
2013-05-09 15:01:00,73.4,39.2,29.66,North,-999,-999.0,-999.0,5,0.00,,,-99.99,0.0,Linux-Irox,2013-05-09 22:01:00,
2013-05-09 15:07:00,73.2,39.0,29.66,North,-999,-999.0,-999.0,5,0.00,,,-99.99,0.0,Linux-Irox,2013-05-09 22:07:00,
2013-05-09 15:16:00,73.6,39.4,29.66,North,-999,-999.0,-999.0,5,0.00,,,-99.99,0.0,Linux-Irox,2013-05-09 22:16:00,
2013-05-09 15:17:00,73.6,39.4,29.66,North,-999,-999.0,-999.0,5,0.00,,,-99.99,0.0,Linux-Irox,2013-05-09 22:17:00,
2013-05-09 15:27:00,74.5,40.3,29.67,North,-999,-999.0,-999.0,5,0.00,,,-99.99,0.0,Linux-Irox,2013-05-09 22:27:00,
2013-05-09 15:31:00,74.3,40.1,29.67,North,-999,-999.0,-999.0,5,0.00,,,-99.99,0.0,Linux-Irox,2013-05-09 22:31:00,
2013-05-09 15:37:00,73.6,39.4,29.67,North,-999,-999.0,-999.0,5,0.00,,,-99.99,0.0,Linux-Irox,2013-05-09 22:37:00,
2013-05-09 15:46:00,73.8,39.6,29.66,North,-999,-999.0,-999.0,5,0.00,,,-99.99,0.0,Linux-Irox,2013-05-09 22:46:00,
2013-05-09 15:47:00,74.1,39.9,29.66,North,-999,-999.0,-999.0,5,0.00,,,-99.99,0.0,Linux-Irox,2013-05-09 22:47:00,
2013-05-09 15:57:00,74.1,39.9,29.66,North,-999,-999.0,-999.0,5,0.00,,,-99.99,0.0,Linux-Irox,2013-05-09 22:57:00,
2013-05-09 16:01:00,73.9,39.7,29.66,North,-999,-999.0,-999.0,5,0.00,,,-99.99,0.0,Linux-Irox,2013-05-09 23:01:00,
2013-05-09 16:07:00,73.8,39.6,29.66,North,-999,-999.0,-999.0,5,0.00,,,-99.99,0.0,Linux-Irox,2013-05-09 23:07:00,
2013-05-09 16:16:00,73.4,39.2,29.66,North,-999,-999.0,-999.0,5,0.00,,,-99.99,0.0,Linux-Irox,2013-05-09 23:16:00,
2013-05-09 16:17:00,73.6,39.4,29.66,North,-999,-999.0,-999.0,5,0.00,,,-99.99,0.0,Linux-Irox,2013-05-09 23:17:00,
2013-05-09 16:27:00,74.1,39.9,29.66,North,-999,-999.0,-999.0,5,0.00,,,-99.99,0.0,Linux-Irox,2013-05-09 23:27:00,
2013-05-09 16:31:00,73.8,39.6,29.66,North,-999,-999.0,-999.0,5,0.00,,,-99.99,0.0,Linux-Irox,2013-05-09 23:31:00,
2013-05-09 16:37:00,74.3,40.1,29.66,North,-999,-999.0,-999.0,5,0.00,,,-99.99,0.0,Linux-Irox,2013-05-09 23:37:00,
2013-05-09 16:46:00,74.5,40.3,29.64,North,-999,-999.0,-999.0,5,0.00,,,-99.99,0.0,Linux-Irox,2013-05-09 23:46:00,
2013-05-09 16:47:00,74.7,40.5,29.64,North,-999,-999.0,-999.0,5,0.00,,,-99.99,0.0,Linux-Irox,2013-05-09 23:47:00,
2013-05-09 16:57:00,74.1,39.9,29.64,North,-999,-999.0,-999.0,5,0.00,,,-99.99,0.0,Linux-Irox,2013-05-09 23:57:00,
2013-05-09 17:01:00,73.9,39.7,29.66,North,-999,-999.0,-999.0,5,0.00,,,-99.99,0.0,Linux-Irox,2013-05-10 00:01:00,
2013-05-09 17:07:00,73.4,39.2,29.66,North,-999,-999.0,-999.0,5,0.00,,,-99.99,0.0,Linux-Irox,2013-05-10 00:07:00,
2013-05-09 17:16:00,73.8,39.6,29.66,North,-999,-999.0,-999.0,5,0.00,,,-99.99,0.0,Linux-Irox,2013-05-10 00:16:00,
2013-05-09 17:17:00,73.8,39.6,29.66,North,-999,-999.0,-999.0,5,0.00,,,-99.99,0.0,Linux-Irox,2013-05-10 00:17:00,
2013-05-09 17:27:00,73.8,39.6,29.66,North,-999,-999.0,-999.0,5,0.00,,,-99.99,0.0,Linux-Irox,2013-05-10 00:27:00,
2013-05-09 17:31:00,73.8,39.6,29.66,North,-999,-999.0,-999.0,5,0.00,,,-99.99,0.0,Linux-Irox,2013-05-10 00:31:00,
2013-05-09 17:37:00,73.8,39.6,29.66,North,-999,-999.0,-999.0,5,0.00,,,-99.99,0.0,Linux-Irox,2013-05-10 00:37:00,
2013-05-09 17:46:00,73.6,39.4,29.65,North,-999,-999.0,-999.0,5,0.00,,,-99.99,0.0,Linux-Irox,2013-05-10 00:46:00,
2013-05-09 17:47:00,73.4,39.2,29.65,North,-999,-999.0,-999.0,5,0.00,,,-99.99,0.0,Linux-Irox,2013-05-10 00:47:00,
2013-05-09 17:57:00,72.9,38.7,29.65,North,-999,-999.0,-999.0,5,0.00,,,-99.99,0.0,Linux-Irox,2013-05-10 00:57:00,
2013-05-09 18:01:00,72.5,38.3,29.66,North,-999,-999.0,-999.0,5,0.00,,,-99.99,0.0,Linux-Irox,2013-05-10 01:01:00,
2013-05-09 18:07:00,72.9,38.7,29.66,North,-999,-999.0,-999.0,5,0.00,,,-99.99,0.0,Linux-Irox,2013-05-10 01:07:00,
2013-05-09 18:16:00,72.7,38.5,29.66,North,-999,-999.0,-999.0,5,0.00,,,-99.99,0.0,Linux-Irox,2013-05-10 01:16:00,
2013-05-09 18:17:00,72.7,38.5,29.66,North,-999,-999.0,-999.0,5,0.00,,,-99.99,0.0,Linux-Irox,2013-05-10 01:17:00,
2013-05-09 18:27:00,72.1,37.9,29.65,North,-999,-999.0,-999.0,5,0.00,,,-99.99,0.0,Linux-Irox,2013-05-10 01:27:00,
2013-05-09 18:31:00,72.0,37.8,29.65,North,-999,-999.0,-999.0,5,0.00,,,-99.99,0.0,Linux-Irox,2013-05-10 01:31:00,
2013-05-09 18:37:00,72.1,37.9,29.65,North,-999,-999.0,-999.0,5,0.00,,,-99.99,0.0,Linux-Irox,2013-05-10 01:37:00,
2013-05-09 18:46:00,72.1,37.9,29.65,North,-999,-999.0,-999.0,5,0.00,,,-99.99,0.0,Linux-Irox,2013-05-10 01:46:00,
2013-05-09 18:47:00,72.1,37.9,29.65,North,-999,-999.0,-999.0,5,0.00,,,-99.99,0.0,Linux-Irox,2013-05-10 01:47:00,
2013-05-09 18:57:00,71.2,37.0,29.65,North,-999,-999.0,-999.0,5,0.00,,,-99.99,0.0,Linux-Irox,2013-05-10 01:57:00,
2013-05-09 19:01:00,70.7,36.5,29.65,North,-999,-999.0,-999.0,5,0.00,,,-99.99,0.0,Linux-Irox,2013-05-10 02:01:00,
2013-05-09 19:07:00,70.0,35.8,29.65,North,-999,-999.0,-999.0,5,0.00,,,-99.99,0.0,Linux-Irox,2013-05-10 02:07:00,
2013-05-09 19:16:00,69.4,35.2,29.65,North,-999,-999.0,-999.0,5,0.00,,,-99.99,0.0,Linux-Irox,2013-05-10 02:16:00,
2013-05-09 19:17:00,69.3,35.1,29.65,North,-999,-999.0,-999.0,5,0.00,,,-99.99,0.0,Linux-Irox,2013-05-10 02:17:00,
2013-05-09 19:27:00,68.2,34.0,29.66,North,-999,-999.0,-999.0,5,0.00,,,-99.99,0.0,Linux-Irox,2013-05-10 02:27:00,
2013-05-09 19:31:00,67.8,33.6,29.66,North,-999,-999.0,-999.0,5,0.00,,,-99.99,0.0,Linux-Irox,2013-05-10 02:31:00,
2013-05-09 19:37:00,67.3,33.1,29.66,North,-999,-999.0,-999.0,5,0.00,,,-99.99,0.0,Linux-Irox,2013-05-10 02:37:00,
2013-05-09 19:46:00,66.6,32.4,29.65,North,-999,-999.0,-999.0,5,0.00,,,-99.99,0.0,Linux-Irox,2013-05-10 02:46:00,
2013-05-09 19:47:00,66.4,32.2,29.65,North,-999,-999.0,-999.0,5,0.00,,,-99.99,0.0,Linux-Irox,2013-05-10 02:47:00,
2013-05-09 19:57:00,65.7,31.5,29.65,North,-999,-999.0,-999.0,5,0.00,,,-99.99,0.0,Linux-Irox,2013-05-10 02:57:00,
2013-05-09 20:01:00,65.3,31.1,29.64,North,-999,-999.0,-999.0,5,0.00,,,-99.99,0.0,Linux-Irox,2013-05-10 03:01:00,
2013-05-09 20:07:00,64.8,30.6,29.64,North,-999,-999.0,-999.0,5,0.00,,,-99.99,0.0,Linux-Irox,2013-05-10 03:07:00,
2013-05-09 20:17:00,64.0,29.8,29.64,North,-999,-999.0,-999.0,5,0.00,,,-99.99,0.0,Linux-Irox,2013-05-10 03:17:00,
2013-05-09 20:27:00,63.3,29.1,29.66,North,-999,-999.0,-999.0,5,0.00,,,-99.99,0.0,Linux-Irox,2013-05-10 03:27:00,
2013-05-09 20:37:00,62.8,29.3,29.66,North,-999,-999.0,-999.0,7,0.00,,,-99.99,0.0,Linux-Irox,2013-05-10 03:37:00,
2013-05-09 20:47:00,62.4,29.3,29.68,North,-999,-999.0,-999.0,8,0.00,,,-99.99,0.0,Linux-Irox,2013-05-10 03:47:00,
2013-05-09 20:57:00,62.2,29.1,29.68,North,-999,-999.0,-999.0,8,0.00,,,-99.99,0.0,Linux-Irox,2013-05-10 03:57:00,
2013-05-09 21:07:00,61.7,30.0,29.70,North,-999,-999.0,-999.0,12,0.00,,,-99.99,0.0,Linux-Irox,2013-05-10 04:07:00,
2013-05-09 21:17:00,61.5,30.6,29.70,North,-999,-999.0,-999.0,14,0.00,,,-99.99,0.0,Linux-Irox,2013-05-10 04:17:00,
2013-05-09 21:27:00,61.3,30.4,29.72,North,-999,-999.0,-999.0,14,0.00,,,-99.99,0.0,Linux-Irox,2013-05-10 04:27:00,
2013-05-09 21:37:00,61.2,31.3,29.72,North,-999,-999.0,-999.0,17,0.00,,,-99.99,0.0,Linux-Irox,2013-05-10 04:37:00,
2013-05-09 21:47:00,60.4,30.6,29.73,North,-999,-999.0,-999.0,17,0.00,,,-99.99,0.0,Linux-Irox,2013-05-10 04:47:00,
2013-05-09 21:57:00,60.3,31.5,29.73,North,-999,-999.0,-999.0,20,0.00,,,-99.99,0.0,Linux-Irox,2013-05-10 04:57:00,
2013-05-09 22:07:00,59.9,31.1,29.74,North,-999,-999.0,-999.0,20,0.00,,,-99.99,0.0,Linux-Irox,2013-05-10 05:07:00,
2013-05-09 22:17:00,59.5,31.1,29.74,North,-999,-999.0,-999.0,21,0.00,,,-99.99,0.0,Linux-Irox,2013-05-10 05:17:00,
2013-05-09 22:27:00,59.4,31.3,29.75,North,-999,-999.0,-999.0,22,0.00,,,-99.99,0.0,Linux-Irox,2013-05-10 05:27:00,
2013-05-09 22:37:00,59.2,31.5,29.75,North,-999,-999.0,-999.0,23,0.00,,,-99.99,0.0,Linux-Irox,2013-05-10 05:37:00,
2013-05-09 22:47:00,58.8,31.5,29.76,North,-999,-999.0,-999.0,24,0.00,,,-99.99,0.0,Linux-Irox,2013-05-10 05:47:00,
2013-05-09 22:57:00,58.6,31.3,29.76,North,-999,-999.0,-999.0,24,0.00,,,-99.99,0.0,Linux-Irox,2013-05-10 05:57:00,
2013-05-09 23:07:00,58.3,30.9,29.76,North,-999,-999.0,-999.0,24,0.00,,,-99.99,0.0,Linux-Irox,2013-05-10 06:07:00,
2013-05-09 23:17:00,58.3,31.3,29.76,North,-999,-999.0,-999.0,25,0.00,,,-99.99,0.0,Linux-Irox,2013-05-10 06:17:00,
2013-05-09 23:27:00,58.1,31.1,29.76,North,-999,-999.0,-999.0,25,0.00,,,-99.99,0.0,Linux-Irox,2013-05-10 06:27:00,
2013-05-09 23:37:00,57.9,31.3,29.76,North,-999,-999.0,-999.0,26,0.00,,,-99.99,0.0,Linux-Irox,2013-05-10 06:37:00,
2013-05-09 23:47:00,57.9,32.0,29.77,North,-999,-999.0,-999.0,28,0.00,,,-99.99,0.0,Linux-Irox,2013-05-10 06:47:00,
2013-05-09 23:57:00,58.1,32.9,29.77,North,-999,-999.0,-999.0,30,0.00,,,-99.99,0.0,Linux-Irox,2013-05-10 06:57:00,